Location: Michelbach Markt
(48.1000°N, 15.7500°E)
Time: 15:14:37
(UTC+02:00)

Envisat - Pass Details

Date: 29 January 2022
Orbit: 764 x 765 km, 98.2° (Epoch: 17 May)

Event Time Altitude Azimuth Distance (km) Brightness Sun altitude
Rises 03:26:52 0° 30° (NNE) 3,242 6.8 -40.1°
Reaches altitude 10° 03:30:18 10° 54° (NE) 2,310 6.1 -39.6°
Maximum altitude 03:33:04 15° 87° (E) 2,004 5.7 -39.2°
Drops below altitude 10° 03:35:49 10° 120° (ESE) 2,301 5.8 -38.7°
Sets 03:39:12 0° 145° (SE) 3,221 6.4 -38.2°
